When you browse on this site, cookies collect data to enhance your experience and personalize the content and advertising you see.
Visit our Privacy Policy to learn more. By continuing to use the site, you agree to this use of cookies and data.
  • In Hungary
  • List of Countries
  • For 7 days
  • Water Temperature
  • Weather Map
  • News
  • Weather Widgets
  • user-avatar
    Login

    Hourly Weather Sora

    Today, 19 November, Tuesday

    Time Temperature Precipitation Wind Pressure Humidity
    00:00 +12°C° 0.3 mm 2 mps 734 mmHg 94%
    01:00 +12°C° 0.3 mm 2 mps 734 mmHg 94%
    02:00 +12°C° 0.2 mm 2 mps 734 mmHg 93%
    03:00 +12°C° 0.2 mm 2 mps 734 mmHg 93%
    04:00 +12°C° 0.2 mm 2 mps 734 mmHg 93%
    05:00 +12°C° 0.3 mm 2 mps 734 mmHg 94%
    06:00 +12°C° 0.3 mm 2 mps 734 mmHg 94%
    07:00 +12°C° 0.3 mm 2 mps 734 mmHg 95%
    08:00 +13°C° 0.2 mm 2 mps 734 mmHg 92%
    09:00 +13°C° 0.2 mm 2 mps 734 mmHg 89%
    10:00 +13°C° 0.2 mm 3 mps 735 mmHg 87%
    11:00 +14°C° 0.3 mm 2 mps 734 mmHg 84%
    12:00 +14°C° 0.3 mm 2 mps 734 mmHg 81%
    13:00 +15°C° 0.3 mm 2 mps 733 mmHg 79%
    14:00 +14°C° 0.3 mm 2 mps 733 mmHg 81%
    15:00 +14°C° 0.3 mm 1 mps 733 mmHg 84%
    16:00 +13°C° 0.3 mm 1 mps 733 mmHg 87%
    17:00 +13°C° 0.6 mm 1 mps 733 mmHg 89%
    18:00 +13°C° 0.6 mm 1 mps 733 mmHg 91%
    19:00 +12°C° 0.6 mm 1 mps 733 mmHg 92%
    20:00 +12°C° 0.6 mm 1 mps 733 mmHg 92%
    21:00 +11°C° 0.6 mm 0 mps 733 mmHg 92%
    22:00 +11°C° 0.6 mm 0 mps 733 mmHg 92%
    23:00 +11°C° 0.1 mm 0 mps 732 mmHg 92%

    Tomorrow, 20 November, Wednesday

    Time Temperature Precipitation Wind Pressure Humidity
    00:00 +10°C° 0.1 mm 0 mps 732 mmHg 91%
    01:00 +11°C° 0.1 mm 1 mps 732 mmHg 91%
    02:00 +11°C° 0.3 mm 1 mps 732 mmHg 91%
    03:00 +11°C° 0.3 mm 1 mps 732 mmHg 92%
    04:00 +11°C° 0.3 mm 1 mps 731 mmHg 92%
    05:00 +11°C° 0 mm 1 mps 732 mmHg 92%
    06:00 +10°C° 0 mm 1 mps 732 mmHg 92%
    07:00 +9°C° 0 mm 0 mps 732 mmHg 91%
    08:00 +10°C° 0 mm 0 mps 732 mmHg 88%
    09:00 +13°C° 0 mm 1 mps 733 mmHg 84%
    10:00 +14°C° 0 mm 1 mps 733 mmHg 81%
    11:00 +14°C° 0.1 mm 1 mps 733 mmHg 79%
    12:00 +14°C° 0.1 mm 1 mps 733 mmHg 77%
    13:00 +15°C° 0.1 mm 1 mps 733 mmHg 74%
    14:00 +14°C° 0.2 mm 1 mps 733 mmHg 78%
    15:00 +14°C° 0.2 mm 1 mps 733 mmHg 81%
    16:00 +14°C° 0.2 mm 1 mps 733 mmHg 84%
    17:00 +13°C° 0 mm 1 mps 734 mmHg 87%
    18:00 +11°C° 0 mm 0 mps 734 mmHg 89%
    19:00 +10°C° 0 mm 0 mps 734 mmHg 91%
    20:00 +9°C° 0 mm 0 mps 735 mmHg 92%
    21:00 +9°C° 0 mm 0 mps 735 mmHg 92%
    22:00 +10°C° 0 mm 1 mps 735 mmHg 93%
    23:00 +10°C° 0 mm 1 mps 735 mmHg 93%

    Day after tomorrow, 21 November, Thursday

    Time Temperature Precipitation Wind Pressure Humidity
    00:00 +10°C° 0 mm 1 mps 735 mmHg 94%
    01:00 +10°C° 0 mm 1 mps 735 mmHg 94%
    02:00 +10°C° 0 mm 1 mps 735 mmHg 94%
    03:00 +9°C° 0 mm 0 mps 735 mmHg 94%
    04:00 +9°C° 0 mm 0 mps 735 mmHg 94%
    05:00 +9°C° 0 mm 0 mps 735 mmHg 94%
    06:00 +9°C° 0 mm 0 mps 734 mmHg 93%
    07:00 +8°C° 0 mm 0 mps 734 mmHg 93%
    08:00 +11°C° 0 mm 1 mps 735 mmHg 89%
    09:00 +12°C° 0 mm 1 mps 735 mmHg 85%
    10:00 +13°C° 0 mm 1 mps 735 mmHg 81%
    11:00 +13°C° 0.1 mm 1 mps 735 mmHg 78%
    12:00 +14°C° 0.1 mm 1 mps 735 mmHg 75%
    13:00 +14°C° 0.1 mm 1 mps 735 mmHg 72%
    14:00 +14°C° 0.1 mm 1 mps 734 mmHg 75%
    15:00 +13°C° 0.1 mm 1 mps 734 mmHg 78%
    16:00 +13°C° 0.1 mm 1 mps 734 mmHg 82%
    17:00 +11°C° 0 mm 0 mps 734 mmHg 84%
    18:00 +10°C° 0 mm 0 mps 734 mmHg 85%
    19:00 +9°C° 0 mm 0 mps 734 mmHg 87%
    20:00 +9°C° 0 mm 0 mps 734 mmHg 87%
    21:00 +9°C° 0 mm 0 mps 735 mmHg 86%
    22:00 +9°C° 0 mm 0 mps 735 mmHg 86%
    23:00 +9°C° 0 mm 0 mps 735 mmHg 86%

    22 November, Friday

    Time Temperature Precipitation Wind Pressure Humidity
    00:00 +9°C° 0 mm 0 mps 735 mmHg 86%
    01:00 +9°C° 0 mm 0 mps 735 mmHg 86%
    02:00 +9°C° 0 mm 0 mps 735 mmHg 86%
    03:00 +9°C° 0 mm 0 mps 735 mmHg 86%
    04:00 +8°C° 0 mm 0 mps 734 mmHg 86%
    05:00 +9°C° 0 mm 1 mps 735 mmHg 85%
    06:00 +9°C° 0 mm 1 mps 735 mmHg 85%
    07:00 +9°C° 0 mm 1 mps 735 mmHg 85%
    08:00 +10°C° 0 mm 1 mps 735 mmHg 83%
    09:00 +12°C° 0 mm 1 mps 735 mmHg 80%
    10:00 +13°C° 0 mm 1 mps 736 mmHg 78%
    11:00 +14°C° 0 mm 1 mps 735 mmHg 77%
    12:00 +14°C° 0 mm 1 mps 735 mmHg 77%
    13:00 +15°C° 0 mm 1 mps 735 mmHg 76%
    14:00 +14°C° 0.1 mm 1 mps 735 mmHg 79%
    15:00 +13°C° 0.1 mm 1 mps 734 mmHg 83%
    16:00 +13°C° 0.1 mm 1 mps 734 mmHg 86%
    17:00 +12°C° 0 mm 1 mps 734 mmHg 88%
    18:00 +12°C° 0 mm 1 mps 734 mmHg 91%
    19:00 +11°C° 0 mm 1 mps 734 mmHg 93%
    20:00 +11°C° 0 mm 1 mps 734 mmHg 93%
    21:00 +11°C° 0 mm 1 mps 734 mmHg 93%
    22:00 +11°C° 0 mm 1 mps 734 mmHg 93%
    23:00 +11°C° 0.1 mm 1 mps 734 mmHg 93%

    23 November, Saturday

    Time Temperature Precipitation Wind Pressure Humidity
    00:00 +11°C° 0.1 mm 1 mps 734 mmHg 93%
    01:00 +11°C° 0.1 mm 1 mps 734 mmHg 93%
    02:00 +11°C° 0 mm 1 mps 734 mmHg 93%
    03:00 +11°C° 0 mm 1 mps 733 mmHg 93%
    04:00 +11°C° 0 mm 1 mps 733 mmHg 94%
    05:00 +11°C° 0 mm 1 mps 733 mmHg 94%
    06:00 +11°C° 0 mm 1 mps 733 mmHg 94%
    07:00 +11°C° 0 mm 1 mps 733 mmHg 94%
    08:00 +12°C° 0 mm 2 mps 733 mmHg 92%
    09:00 +13°C° 0 mm 2 mps 733 mmHg 90%
    10:00 +13°C° 0 mm 2 mps 733 mmHg 88%
    11:00 +14°C° 0.1 mm 2 mps 732 mmHg 85%
    12:00 +13°C° 0.1 mm 3 mps 731 mmHg 83%
    13:00 +13°C° 0.1 mm 3 mps 731 mmHg 80%
    14:00 +13°C° 0.3 mm 3 mps 730 mmHg 84%
    15:00 +12°C° 0.3 mm 3 mps 730 mmHg 87%
    16:00 +13°C° 0.3 mm 2 mps 730 mmHg 91%
    17:00 +13°C° 0.5 mm 2 mps 729 mmHg 92%
    18:00 +12°C° 0.5 mm 2 mps 729 mmHg 94%
    19:00 +12°C° 0.5 mm 2 mps 729 mmHg 95%
    20:00 +11°C° 0.9 mm 3 mps 728 mmHg 95%
    21:00 +11°C° 0.9 mm 3 mps 728 mmHg 95%
    22:00 +11°C° 0.9 mm 3 mps 728 mmHg 95%
    23:00 +11°C° 1.2 mm 3 mps 727 mmHg 95%

    24 November, Sunday

    Time Temperature Precipitation Wind Pressure Humidity
    00:00 +11°C° 1.2 mm 3 mps 727 mmHg 95%
    01:00 +11°C° 1.2 mm 3 mps 726 mmHg 95%
    02:00 +11°C° 1.4 mm 3 mps 726 mmHg 95%
    03:00 +11°C° 1.4 mm 3 mps 725 mmHg 95%
    04:00 +11°C° 1.4 mm 3 mps 725 mmHg 95%
    05:00 +11°C° 0.6 mm 3 mps 725 mmHg 94%
    06:00 +12°C° 0.6 mm 2 mps 725 mmHg 93%
    07:00 +12°C° 0.6 mm 2 mps 725 mmHg 92%
    08:00 +13°C° 0.1 mm 2 mps 726 mmHg 90%
    09:00 +13°C° 0.1 mm 2 mps 727 mmHg 87%
    10:00 +14°C° 0.1 mm 2 mps 727 mmHg 85%
    11:00 +15°C° 0 mm 2 mps 728 mmHg 81%
    12:00 +16°C° 0 mm 2 mps 728 mmHg 77%
    13:00 +17°C° 0 mm 2 mps 728 mmHg 73%
    14:00 +16°C° 0 mm 2 mps 729 mmHg 76%
    15:00 +15°C° 0 mm 2 mps 729 mmHg 78%
    16:00 +15°C° 0 mm 2 mps 730 mmHg 81%
    17:00 +14°C° 0 mm 2 mps 730 mmHg 82%
    18:00 +13°C° 0 mm 2 mps 731 mmHg 84%
    19:00 +13°C° 0 mm 2 mps 731 mmHg 85%
    20:00 +13°C° 0 mm 2 mps 732 mmHg 85%
    21:00 +12°C° 0 mm 2 mps 732 mmHg 85%
    22:00 +12°C° 0 mm 2 mps 733 mmHg 85%
    23:00 +12°C° 0 mm 2 mps 733 mmHg 86%
    Show more